• In Hungary
  • List of Countries
  • For 7 days
  • Water Temperature
  • Satellite Maps
  • Weather Map
  • News
  • Weather Widgets
  • user-avatar
    Login

    Hourly Weather Megri

    Today, 23 October, Tuesday

    Time Temperature Precipitation Wind Pressure Humidity
    00:00 +12°C° 0 mm 1 mps 625 mmHg 58%
    01:00 +11°C° 0 mm 1 mps 624 mmHg 59%
    02:00 +11°C° 0 mm 1 mps 624 mmHg 61%
    03:00 +10°C° 0 mm 2 mps 624 mmHg 66%
    04:00 +9°C° 0 mm 2 mps 624 mmHg 69%
    05:00 +9°C° 0 mm 2 mps 624 mmHg 71%
    06:00 +9°C° 0 mm 2 mps 624 mmHg 74%
    07:00 +10°C° 0 mm 2 mps 625 mmHg 68%
    08:00 +13°C° 0 mm 2 mps 625 mmHg 62%
    09:00 +13°C° 0 mm 3 mps 626 mmHg 57%
    10:00 +14°C° 0 mm 3 mps 626 mmHg 53%
    11:00 +14°C° 0 mm 3 mps 626 mmHg 49%
    12:00 +16°C° 0 mm 3 mps 626 mmHg 45%
    13:00 +16°C° 0 mm 3 mps 625 mmHg 43%
    14:00 +17°C° 0 mm 3 mps 625 mmHg 41%
    15:00 +17°C° 0 mm 3 mps 625 mmHg 39%
    16:00 +16°C° 0 mm 2 mps 624 mmHg 42%
    17:00 +15°C° 0 mm 2 mps 624 mmHg 45%
    18:00 +14°C° 0 mm 1 mps 624 mmHg 47%
    19:00 +13°C° 0 mm 1 mps 624 mmHg 48%
    20:00 +13°C° 0 mm 1 mps 624 mmHg 49%
    21:00 +12°C° 0 mm 1 mps 624 mmHg 50%
    22:00 +12°C° 0 mm 1 mps 623 mmHg 51%
    23:00 +11°C° 0 mm 1 mps 623 mmHg 51%

    Tomorrow, 24 October, Wednesday

    Time Temperature Precipitation Wind Pressure Humidity
    00:00 +11°C° 0 mm 1 mps 623 mmHg 51%
    01:00 +11°C° 0 mm 1 mps 623 mmHg 52%
    02:00 +10°C° 0 mm 2 mps 623 mmHg 52%
    03:00 +9°C° 0 mm 2 mps 623 mmHg 53%
    04:00 +9°C° 0 mm 2 mps 622 mmHg 55%
    05:00 +9°C° 0 mm 2 mps 622 mmHg 57%
    06:00 +9°C° 0 mm 2 mps 622 mmHg 60%
    07:00 +12°C° 0 mm 2 mps 622 mmHg 56%
    08:00 +12°C° 0 mm 3 mps 623 mmHg 52%
    09:00 +14°C° 0 mm 3 mps 624 mmHg 48%
    10:00 +15°C° 0 mm 4 mps 623 mmHg 45%
    11:00 +16°C° 0 mm 5 mps 623 mmHg 43%
    12:00 +17°C° 0 mm 6 mps 623 mmHg 41%
    13:00 +17°C° 0 mm 6 mps 623 mmHg 40%
    14:00 +17°C° 0 mm 6 mps 622 mmHg 40%
    15:00 +18°C° 0 mm 7 mps 622 mmHg 39%
    16:00 +17°C° 0.1 mm 6 mps 621 mmHg 41%
    17:00 +16°C° 0.1 mm 5 mps 621 mmHg 43%
    18:00 +15°C° 0.1 mm 5 mps 621 mmHg 45%
    19:00 +14°C° 0.1 mm 5 mps 621 mmHg 47%
    20:00 +14°C° 0.1 mm 5 mps 620 mmHg 48%
    21:00 +14°C° 0.1 mm 4 mps 620 mmHg 50%
    22:00 +13°C° 0 mm 4 mps 620 mmHg 52%
    23:00 +12°C° 0 mm 4 mps 620 mmHg 55%

    Day after tomorrow, 25 October, Thursday

    Time Temperature Precipitation Wind Pressure Humidity
    00:00 +12°C° 0 mm 4 mps 619 mmHg 58%
    01:00 +11°C° 0 mm 4 mps 619 mmHg 61%
    02:00 +11°C° 0 mm 4 mps 619 mmHg 64%
    03:00 +10°C° 0 mm 4 mps 619 mmHg 67%
    04:00 +10°C° 0 mm 4 mps 618 mmHg 68%
    05:00 +10°C° 0 mm 4 mps 618 mmHg 70%
    06:00 +10°C° 0 mm 4 mps 618 mmHg 72%
    07:00 +12°C° 0 mm 5 mps 618 mmHg 64%
    08:00 +13°C° 0 mm 6 mps 619 mmHg 56%
    09:00 +15°C° 0 mm 7 mps 619 mmHg 48%
    10:00 +16°C° 0 mm 8 mps 619 mmHg 45%
    11:00 +17°C° 0 mm 9 mps 619 mmHg 41%
    12:00 +18°C° 0 mm 10 mps 618 mmHg 38%
    13:00 +19°C° 0 mm 11 mps 618 mmHg 37%
    14:00 +19°C° 0 mm 12 mps 618 mmHg 37%
    15:00 +19°C° 0 mm 12 mps 617 mmHg 36%
    16:00 +18°C° 0 mm 11 mps 617 mmHg 41%
    17:00 +16°C° 0 mm 10 mps 617 mmHg 46%
    18:00 +15°C° 0 mm 8 mps 617 mmHg 50%
    19:00 +15°C° 0 mm 8 mps 617 mmHg 52%
    20:00 +13°C° 0 mm 8 mps 617 mmHg 54%
    21:00 +14°C° 0 mm 7 mps 617 mmHg 57%
    22:00 +13°C° 0.2 mm 8 mps 617 mmHg 57%
    23:00 +13°C° 0.2 mm 8 mps 617 mmHg 58%

    26 October, Friday

    Time Temperature Precipitation Wind Pressure Humidity
    00:00 +12°C° 0.2 mm 8 mps 617 mmHg 58%
    01:00 +12°C° 0.3 mm 7 mps 616 mmHg 61%
    02:00 +13°C° 0.3 mm 6 mps 616 mmHg 64%
    03:00 +12°C° 0.3 mm 5 mps 616 mmHg 67%
    04:00 +12°C° 0.2 mm 5 mps 616 mmHg 68%
    05:00 +11°C° 0.2 mm 4 mps 616 mmHg 69%
    06:00 +11°C° 0.2 mm 4 mps 616 mmHg 71%
    07:00 +12°C° 0.1 mm 5 mps 617 mmHg 65%
    08:00 +13°C° 0.1 mm 6 mps 618 mmHg 59%
    09:00 +15°C° 0.1 mm 8 mps 618 mmHg 53%
    10:00 +16°C° 0.2 mm 9 mps 618 mmHg 48%
    11:00 +16°C° 0.2 mm 9 mps 618 mmHg 44%
    12:00 +17°C° 0.2 mm 10 mps 618 mmHg 39%
    13:00 +17°C° 0.5 mm 10 mps 618 mmHg 42%
    14:00 +16°C° 0.5 mm 10 mps 618 mmHg 45%
    15:00 +14°C° 0.5 mm 10 mps 618 mmHg 47%
    16:00 +13°C° 0.9 mm 9 mps 618 mmHg 53%
    17:00 +11°C° 0.9 mm 7 mps 619 mmHg 58%
    18:00 +9°C° 0.9 mm 5 mps 619 mmHg 64%
    19:00 +8°C° 0.4 mm 4 mps 619 mmHg 67%
    20:00 +7°C° 0.4 mm 4 mps 620 mmHg 69%
    21:00 +6°C° 0.4 mm 4 mps 620 mmHg 71%
    22:00 +5°C° 0.3 mm 3 mps 621 mmHg 70%
    23:00 +5°C° 0.3 mm 3 mps 621 mmHg 68%

    27 October, Saturday

    Time Temperature Precipitation Wind Pressure Humidity
    00:00 +5°C° 0.3 mm 3 mps 622 mmHg 67%
    01:00 +5°C° 0 mm 2 mps 622 mmHg 66%
    02:00 +5°C° 0 mm 2 mps 623 mmHg 66%
    03:00 +4°C° 0 mm 2 mps 623 mmHg 66%
    04:00 +4°C° 0 mm 2 mps 623 mmHg 65%
    05:00 +3°C° 0 mm 2 mps 624 mmHg 64%
    06:00 +3°C° 0 mm 2 mps 624 mmHg 63%
    07:00 +4°C° 0 mm 2 mps 625 mmHg 55%
    08:00 +5°C° 0 mm 2 mps 626 mmHg 47%
    09:00 +8°C° 0 mm 1 mps 626 mmHg 39%
    10:00 +9°C° 0 mm 1 mps 627 mmHg 35%
    11:00 +10°C° 0 mm 1 mps 627 mmHg 31%
    12:00 +11°C° 0 mm 1 mps 627 mmHg 26%
    13:00 +12°C° 0 mm 1 mps 627 mmHg 25%
    14:00 +12°C° 0 mm 1 mps 627 mmHg 24%
    15:00 +13°C° 0 mm 1 mps 627 mmHg 23%
    16:00 +11°C° 0 mm 1 mps 627 mmHg 28%
    17:00 +10°C° 0 mm 1 mps 627 mmHg 32%
    18:00 +9°C° 0 mm 1 mps 627 mmHg 37%
    19:00 +9°C° 0 mm 1 mps 627 mmHg 41%
    20:00 +8°C° 0 mm 1 mps 627 mmHg 44%
    21:00 +7°C° 0 mm 1 mps 627 mmHg 48%
    22:00 +7°C° 0 mm 1 mps 627 mmHg 50%
    23:00 +7°C° 0 mm 1 mps 627 mmHg 52%

    28 October, Sunday

    Time Temperature Precipitation Wind Pressure Humidity
    00:00 +6°C° 0 mm 1 mps 627 mmHg 53%
    01:00 +6°C° 0 mm 1 mps 627 mmHg 54%
    02:00 +6°C° 0 mm 1 mps 627 mmHg 54%
    03:00 +6°C° 0 mm 1 mps 626 mmHg 55%
    04:00 +5°C° 0 mm 1 mps 627 mmHg 55%
    05:00 +5°C° 0 mm 1 mps 627 mmHg 55%
    06:00 +5°C° 0 mm 1 mps 627 mmHg 55%
    07:00 +7°C° 0 mm 1 mps 628 mmHg 49%
    08:00 +9°C° 0 mm 1 mps 629 mmHg 43%
    09:00 +11°C° 0 mm 1 mps 630 mmHg 37%
    10:00 +12°C° 0 mm 1 mps 630 mmHg 34%
    11:00 +13°C° 0 mm 1 mps 630 mmHg 31%
    12:00 +14°C° 0 mm 1 mps 630 mmHg 29%
    13:00 +14°C° 0 mm 1 mps 630 mmHg 28%
    14:00 +15°C° 0 mm 1 mps 630 mmHg 27%
    15:00 +15°C° 0 mm 1 mps 629 mmHg 27%
    16:00 +14°C° 0 mm 1 mps 629 mmHg 31%
    17:00 +12°C° 0 mm 1 mps 629 mmHg 36%
    18:00 +11°C° 0 mm 1 mps 629 mmHg 40%
    19:00 +10°C° 0 mm 1 mps 629 mmHg 43%
    20:00 +10°C° 0 mm 1 mps 629 mmHg 46%
    21:00 +9°C° 0 mm 1 mps 629 mmHg 49%
    22:00 +9°C° 0 mm 1 mps 628 mmHg 52%
    23:00 +9°C° 0 mm 1 mps 628 mmHg 55%

    29 October, Monday

    Time Temperature Precipitation Wind Pressure Humidity
    00:00 +8°C° 0 mm 1 mps 628 mmHg 58%
    01:00 +8°C° 0 mm 1 mps 628 mmHg 60%
    02:00 +8°C° 0 mm 1 mps 628 mmHg 62%
    03:00 +7°C° 0 mm 1 mps 628 mmHg 63%
    04:00 +7°C° 0 mm 1 mps 628 mmHg 65%
    05:00 +7°C° 0 mm 1 mps 628 mmHg 66%
    06:00 +6°C° 0 mm 1 mps 628 mmHg 67%
    07:00 +8°C° 0 mm 1 mps 629 mmHg 59%
    08:00 +10°C° 0 mm 1 mps 629 mmHg 51%
    09:00 +12°C° 0 mm 1 mps 630 mmHg 43%
    10:00 +13°C° 0 mm 1 mps 630 mmHg 38%
    11:00 +14°C° 0 mm 2 mps 630 mmHg 34%
    12:00 +15°C° 0 mm 2 mps 631 mmHg 29%
    13:00 +16°C° 0 mm 2 mps 630 mmHg 28%
    14:00 +16°C° 0 mm 2 mps 630 mmHg 27%
    15:00 +16°C° 0 mm 2 mps 630 mmHg 26%
    16:00 +15°C° 0 mm 2 mps 630 mmHg 31%
    17:00 +13°C° 0 mm 2 mps 629 mmHg 35%
    18:00 +12°C° 0 mm 2 mps 629 mmHg 40%
    19:00 +10°C° 0 mm 2 mps 629 mmHg 44%
    20:00 +11°C° 0 mm 1 mps 629 mmHg 47%
    21:00 +10°C° 0 mm 1 mps 628 mmHg 51%
    22:00 +9°C° 0 mm 1 mps 628 mmHg 53%
    23:00 +9°C° 0 mm 1 mps 628 mmHg 54%
    Show more